Eugene, OR

9:30 PM PST on November 21, 2019 (GMT -0800)
Mahlon Sweet

Weather History for KEUG - September, 2019

Change the Weather History Date:

Thursday, September 5, 2019

  Actual Average Record
Temperature  
Mean Temperature 76 °F 64 °F  
Max Temperature 93 °F 80 °F 101 °F (1944)
Min Temperature 58 °F 49 °F 39 °F (2015)
Degree Days  
Heating Degree Days 0 2  
Month to date heating degree days 0 10  
Since 1 July heating degree days 12 77  
Cooling Degree Days 11 2  
Month to date cooling degree days 31 10  
Year to date cooling degree days 339 218  
Growing Degree Days 26 (Base 50)    
Moisture  
Dew Point 57 °F    
Average Humidity 56    
Maximum Humidity 78    
Minimum Humidity 34    
Precipitation  
Precipitation T in 0.03 in 0.74 in (2009)
Month to date precipitation T 0.16  
Year to date precipitation 23.21 26.17  
Sea Level Pressure  
Sea Level Pressure 29.94 in    
Wind  
Wind Speed 5 mph (NW)    
Max Wind Speed 15 mph    
Max Gust Speed 19 mph    
Visibility 10 miles    
Events Rain , Thunderstorm    
T = Trace of Precipitation, MM = Missing Value Source: NWS Daily Summary

Daily Weather History Graph

Daily Weather History Graph

Search for Another Location

Airport or City:

Astronomy

Sep. 05, 2019 Rise Set
Actual Time 6:40 AM PDT 7:41 PM PDT
Civil Twilight 6:10 AM PDT 8:11 PM PDT
Nautical Twilight 5:35 AM PDT 8:46 PM PDT
Astronomical Twilight 4:58 AM PDT 9:23 PM PDT
Moon 2:08 PM PDT (9/5) 11:46 PM PDT (9/5)
Length of Visible Light 14h 00m
Length of Day
13h 01m
Waxing Crescent, 46% of the Moon is Illuminated
Sep 5
Waxing Crescent
Sep 5
First Quarter
Sep 13
Full
Sep 21
Last Quarter
Sep 28
New

Hourly Weather History & Observations

Time (PDT) Temp. Heat Index Dew Point Humidity Pressure Visibility Wind Dir Wind Speed Gust Speed Precip Events Conditions
12:54 AM 61.0 °F - 51.1 °F 70% 29.94 in 10.0 mi NNE 4.6 mph - N/A   Clear
1:54 AM 61.0 °F - 51.1 °F 70% 29.94 in 10.0 mi NNW 3.5 mph - N/A   Clear
2:54 AM 60.1 °F - 52.0 °F 75% 29.94 in 10.0 mi Calm Calm - N/A   Clear
3:54 AM 59.0 °F - 52.0 °F 78% 29.97 in 10.0 mi South 6.9 mph - N/A   Clear
4:54 AM 61.0 °F - 53.1 °F 75% 29.94 in 10.0 mi North 4.6 mph - N/A   Clear
5:54 AM 61.0 °F - 53.1 °F 75% 29.95 in 10.0 mi Calm Calm - N/A   Overcast
6:54 AM 62.1 °F - 54.0 °F 75% 29.96 in 10.0 mi Calm Calm - N/A   Mostly Cloudy
7:54 AM 63.0 °F - 55.0 °F 75% 29.97 in 10.0 mi Calm Calm - N/A   Mostly Cloudy
8:54 AM 66.9 °F - 55.9 °F 68% 29.96 in 10.0 mi North 10.4 mph - N/A   Mostly Cloudy
9:54 AM 71.1 °F - 57.0 °F 61% 29.97 in 10.0 mi NE 4.6 mph - N/A   Scattered Clouds
10:54 AM 75.9 °F - 57.9 °F 54% 29.94 in 10.0 mi North 11.5 mph - N/A   Mostly Cloudy
11:54 AM 78.1 °F - 57.9 °F 50% 29.94 in 10.0 mi North 8.1 mph - N/A   Scattered Clouds
12:54 PM 82.0 °F 82.1 °F 59.0 °F 45% 29.93 in 10.0 mi NNE 8.1 mph - N/A   Scattered Clouds
1:54 PM 86.0 °F 85.4 °F 59.0 °F 40% 29.91 in 10.0 mi NNE 6.9 mph - N/A   Scattered Clouds
2:54 PM 90.0 °F 89.1 °F 59.0 °F 35% 29.89 in 10.0 mi NNE 9.2 mph - N/A   Scattered Clouds
3:54 PM 91.9 °F 91.2 °F 59.0 °F 33% 29.86 in 10.0 mi North 10.4 mph - N/A   Scattered Clouds
4:54 PM 90.0 °F 89.1 °F 59.0 °F 35% 29.87 in 10.0 mi Variable 4.6 mph - N/A   Mostly Cloudy
5:54 PM 88.0 °F 86.9 °F 57.9 °F 36% 29.90 in 10.0 mi Calm Calm - N/A   Overcast
6:09 PM 86.0 °F 86.3 °F 62.1 °F 44% 29.90 in 10.0 mi West 10.4 mph - 0.00 in Rain , Thunderstorm Light Thunderstorms and Rain
6:37 PM 82.0 °F 82.7 °F 61.0 °F 49% 29.92 in 10.0 mi SW 8.1 mph - 0.00 in   Overcast
6:54 PM 79.0 °F - 62.1 °F 56% 29.92 in 10.0 mi SW 8.1 mph - 0.00 in   Overcast
7:54 PM 75.0 °F - 59.0 °F 57% 29.94 in 10.0 mi SSW 11.5 mph - 0.00 in   Mostly Cloudy
8:54 PM 70.0 °F - 57.0 °F 63% 29.96 in 10.0 mi South 10.4 mph - N/A   Mostly Cloudy
9:54 PM 70.0 °F - 57.9 °F 65% 29.99 in 10.0 mi WSW 15.0 mph - N/A   Mostly Cloudy
10:54 PM 66.9 °F - 57.0 °F 70% 30.01 in 10.0 mi WSW 10.4 mph - N/A   Mostly Cloudy
11:54 PM 64.0 °F - 59.0 °F 84% 30.07 in 10.0 mi SSW 8.1 mph - 0.00 in Rain Light Rain